Weather

Vsebine: Paragliding sitesCurrent conditionsCurrent conditions (amateur)Radar rainfal imageMeteo stationsPanoramic cameras


Current conditions (official report)

Show amateur stations

Click on a specific station to see its location

Location Weather conditions Temperature Wind Air pressure Last updated Geopedia
    °C direction speed (m/s) gusts (m/s) hPa    
Babno Polje 14   - - 2019-03-22 15:08:00
Babno Polje (756 m) 5   - - 2016-01-12 07:40:00
Bilje Nova Gorica 21   3 5 1028 2019-03-22 15:08:00
Bilje pri Novi Gorici 21   1 - 1028 2019-03-22 14:42:00
Blegoš 11   - - 2019-03-22 15:07:00
Bohinjska Češnjica 18   - - 2019-03-22 15:07:00
Boršt Gorenja vas 15   2 4 1029 2019-03-22 14:36:00
Bovec 19   3 4 1027 2019-03-22 14:37:00
Breginj 18   - - 2019-03-22 15:07:00
Bukovski vrh 14   - - 2019-03-22 15:07:00
Celje 16   2 - 1030 2019-03-22 14:42:00
Cerkniško jezero 15   - - 2019-03-22 14:55:00
Črnomelj 16   1 - 1031 2019-03-22 14:42:00
Davča 13   - - 2019-03-22 15:07:00
Dobliče Črnomelj 17   3 5 1030 2019-03-22 14:33:00
Dolenje Ajdovščina 21   2 8 2019-03-22 14:34:00
Gačnik 16   1 1 2019-03-22 15:07:00
Godnje 20   2 5 2019-03-22 15:07:00
Gornji Grad 16   - - 2019-03-22 15:07:00
Hočko Pohorje 11   - - 2019-03-22 15:07:00
Hrastnik 16   3 6 1030 2019-03-22 14:36:00
Idrija 18   - - 2019-03-22 15:07:00
Ilirska Bistrica 19   3 5 2019-03-22 14:36:00
Iskrba 15   2 4 2019-03-22 15:07:00
Jeronim 14   - - 2019-03-22 15:07:00
Jeruzalem 16   - - 2019-03-22 15:07:00
Jezersko 13   - - 2019-03-22 15:03:00
Juršče   - - 2016-09-13 14:33:00
Kamniška Bistrica 17   - - 2019-03-22 15:07:00
Kanin 5   - - 2019-03-22 15:07:00
Katarina nad Ljubljano 13   2 - 2019-03-22 13:42:00
Kočevje 16   1 2 2019-03-22 14:54:00
Koper Kapitanija 14   7 9 1028 2019-03-22 14:35:00
Korensko sedlo 9   - - 2019-03-22 15:07:00
Kraj. park Goričko 16   2 5 2019-03-22 14:34:00
Kranj 16   - - 2019-03-22 15:07:00
Kredarica 4   1 2 2019-03-22 15:07:00
Krn 15   - - 2019-03-22 15:06:00
Krško 17   1 4 1031 2019-03-22 14:41:00
Krvavec 5   4 7 2019-03-22 15:06:00
Kubed 18   - - 2019-03-22 15:06:00
Kum 9   1 3 2019-03-22 15:06:00
Lendava 18   1 3 1030 2019-03-22 14:37:00
Let. E. Rusjana Maribor 17   2 4 1030 2019-03-22 14:34:00
Let. J. Pučnika Lj. 0   2 3 1011 2015-11-26 11:03:00
Let. J. Pučnika Ljubljana 16   3 5 1029 2019-03-22 15:05:00
Letališče Cerklje ob Krki 16   1 4 1030 2019-03-22 15:06:00
Letališče Edvarda Rusjana Maribor 16   1 - 1031 2019-03-22 14:42:00
Letališče Jožeta Pučnika Ljubljana 15   2 - 1030 2019-03-22 14:42:00
Letališče Lesce 15   2 - 1029 2019-03-22 14:42:00
Letališče Portorož 17   3 5 1027 2019-03-22 15:02:00
Lisca 10   2 3 2019-03-22 15:06:00
Lisca (943 m) 9   5 12 2016-03-29 14:02:00
Litija 18   - - 2019-03-22 15:06:00
Ljubljana 16   2 - 1030 2019-03-22 14:42:00
Logarska dolina 15   - - 2019-03-22 15:06:00
Logatec 15   - - 2019-03-22 15:06:00
Luka Koper 17   3 6 2019-03-22 14:35:00
Malkovec 15   4 6 1031 2019-03-22 14:37:00
Maribor 16   2 3 2019-03-22 15:03:00
Maribor - Tabor 17   1 3 2019-03-22 14:35:00
Marinča vas 17   - - 2019-03-22 15:07:00
Metlika 17   - - 2019-03-22 15:06:00
Mežica 17   - - 2019-03-22 15:06:00
Miklavž na Gorjancih 10   - - 2019-03-22 15:06:00
Murska Sobota 16   1 3 1030 2019-03-22 15:06:00
Nanos 8   6 10 2019-03-22 15:06:00
Nova Gorica 21   2 5 2019-03-22 14:36:00
Nova vas - Bloke 13   - - 2019-03-22 15:06:00
Novo mesto 16   3 4 1030 2019-03-22 15:06:00
Osilnica 17   - - 2019-03-22 15:05:00
Otlica 12   4 8 2019-03-22 15:06:00
Otlica (965 m) 7   4 7 2016-03-31 08:24:00
Park Škocj. jame 18   4 9 1027 2019-03-22 15:02:00
Pasja ravan 12   - - 2019-03-22 15:05:00
Pavličevo sedlo 9   - - 2019-03-22 15:05:00
Piran-ocean. boja 16   3 6 2018-11-12 21:09:00
Planina pod Golico 14   - - 2019-03-22 15:05:00
Podčetrtek 17   2 4 1030 2019-03-22 14:36:00
Podnanos 21   4 11 2019-03-22 15:05:00
Postojna 17   4 8 1028 2019-03-22 15:05:00
Predel 11   - - 2019-03-22 15:05:00
Ptuj 16   2 4 2019-03-22 15:05:00
Ptuj - Terme -2   2 3 2017-01-19 14:35:00
Radegunda 13   - - 2019-03-22 15:07:00
Radenci 17   - - 1031 2019-03-22 14:34:00
Rateče 15   1 - 2019-03-22 14:42:00
Rateče (864 m) 16   1 3 2019-03-22 14:33:00
Ratitovec 8   1 2 2019-03-22 15:05:00
Ravne na Koroškem 17   3 6 2019-03-22 14:37:00
Rogaška Slatina 17   2 3 2019-03-22 15:05:00
Rogla 7   2 3 2019-03-22 15:05:00
Rogla (1492 m) -11   4 7 2016-01-18 10:32:00
Rudno polje 5   - 1 2019-03-22 15:05:00
Rudno polje (1347 m) -2   1 3 2015-10-20 07:36:00
Sevno 14   - - 2019-03-22 15:05:00
Slavnik 13   7 9 2019-03-22 15:05:00
Slovenj Gradec 16   1 - 2019-03-22 14:42:00
Slovenske Konjice 16   - - 2019-03-22 15:05:00
Sviščaki 8   4 7 2019-03-22 15:05:00
Šebreljski vrh 11   - - 2019-03-22 15:04:00
Šmartno pri Slovenj Gradcu 17   1 3 2019-03-22 15:05:00
Tatre 15   - - 2019-03-22 15:04:00
Tolmin - Volče 20   2 6 2019-03-22 15:04:00
Topol 13   - - 2019-03-22 15:04:00
Trbovlje 18   1 5 2019-03-22 14:37:00
Trebnje 16   - - 2019-03-22 15:04:00
Trije Kralji na Pohorju 9   - - 2019-03-22 15:05:00
Trojane - Limovce 15   3 6 1029 2019-03-22 15:04:00
Uršlja gora 5   2 3 2019-03-22 15:04:00
Vedrijan 20   - - 2019-03-22 15:04:00
Velenje 16   - - 2019-03-22 15:04:00
Velike Lašče 14   4 7 2019-03-22 15:04:00
Vogel 7   1 3 2019-03-22 15:04:00
Vojsko 10   - - 2019-03-22 13:42:00
Vrbanski plato -2   2 3 2016-12-07 11:23:00
Vrhnika 16   2 4 2019-03-22 15:04:00
Vršič 9   - - 2019-03-22 15:04:00
Zadlog 14   - - 2019-03-22 15:07:00
Zelenica 8   - - 2019-03-22 15:04:00
Zgornja Kapla 13   2 3 2019-03-22 15:05:00
Zgornja Radovna 14   - - 2019-03-22 15:04:00
Zgornja Sorica 14   - - 2019-03-22 15:03:00
Source: Slovenian Environmental Agency, meteo.si